Location: *
(38.4303°S, 157.0822°W)
Time: 13:34:10
(UTC+00:00)

Cosmos 2322 Rocket - Pass Details

Date: 21 May 2024
Orbit: 832 x 850 km, 71.0° (Epoch: 14 June)

Event Time Altitude Azimuth Distance (km) Brightness Sun altitude
Rises 15:22:57 0° 339° (NNW) 3,404 5.2 -24.4°
Reaches altitude 10° 15:25:22 10° 339° (NNW) 2,477 4.5 -23.9°
Maximum altitude 15:31:05 89° 256° (WSW) 864 2.1 -22.8°
Drops below altitude 10° 15:36:53 10° 158° (SSE) 2,505 4.8 -21.7°
Sets 15:39:21 0° 157° (SSE) 3,446 5.5 -21.2°
